Time,TemperatureF,DewpointF,PressureIn,WindDirection,WindDirectionDegrees,WindSpeedMPH,WindSpeedGustMPH,Humidity,HourlyPrecipIn,Conditions,Clouds,dailyrainin,SolarRadiationWatts/m^2,SoftwareType,DateUTC
2013-02-02 00:00:00,15.1,8.9,30.46,WNW,287,0.0,0.0,76,0.00,,---,0.00,0.00,VWS V14.01,2013-02-02 05:00:00,
2013-02-02 00:05:00,15.1,8.9,30.46,WNW,286,0.0,0.0,76,0.00,,---,0.00,0.00,VWS V14.01,2013-02-02 05:05:00,
2013-02-02 00:11:00,15.1,8.9,30.46,WNW,286,0.0,0.0,76,0.00,,---,0.00,0.00,VWS V14.01,2013-02-02 05:11:00,
2013-02-02 00:16:00,15.1,8.9,30.46,WNW,286,0.0,0.0,76,0.00,,---,0.00,0.00,VWS V14.01,2013-02-02 05:16:00,
2013-02-02 00:21:00,15.2,9.3,30.46,WNW,286,0.0,0.0,77,0.00,,---,0.00,0.00,VWS V14.01,2013-02-02 05:21:00,
2013-02-02 00:26:00,15.1,9.2,30.47,WNW,286,0.0,0.0,77,0.00,,---,0.00,0.00,VWS V14.01,2013-02-02 05:26:00,
2013-02-02 00:30:00,15.2,9.6,30.47,WNW,286,0.0,0.0,78,0.00,,---,0.00,0.00,VWS V14.01,2013-02-02 05:30:00,
2013-02-02 00:31:00,15.1,9.5,30.47,WNW,286,0.0,0.0,78,0.00,,---,0.00,0.00,VWS V14.01,2013-02-02 05:31:00,
2013-02-02 00:36:00,15.2,9.9,30.47,WNW,286,0.0,0.0,79,0.00,,---,0.00,0.00,VWS V14.01,2013-02-02 05:36:00,
2013-02-02 00:41:00,15.1,9.8,30.46,WNW,286,0.0,0.0,79,0.00,,---,0.00,0.00,VWS V14.01,2013-02-02 05:41:00,
2013-02-02 00:46:00,15.1,9.8,30.47,WNW,286,0.0,0.0,79,0.00,,---,0.00,0.00,VWS V14.01,2013-02-02 05:46:00,
2013-02-02 00:51:00,15.0,9.7,30.47,WNW,286,0.0,0.0,79,0.00,,---,0.00,0.00,VWS V14.01,2013-02-02 05:51:00,
2013-02-02 00:57:00,14.9,9.3,30.46,WNW,286,0.0,0.0,78,0.00,,---,0.00,0.00,VWS V14.01,2013-02-02 05:57:00,
2013-02-02 01:00:00,14.9,9.0,30.46,WNW,286,0.0,0.0,77,0.00,,---,0.00,0.00,VWS V14.01,2013-02-02 06:00:00,
2013-02-02 01:02:00,14.8,8.9,30.47,WNW,286,0.0,0.0,77,0.00,,---,0.00,0.00,VWS V14.01,2013-02-02 06:02:00,
2013-02-02 01:07:00,14.8,8.9,30.46,WNW,286,0.0,0.0,77,0.00,,---,0.00,0.00,VWS V14.01,2013-02-02 06:07:00,
2013-02-02 01:12:00,14.8,8.6,30.46,WNW,286,0.0,0.0,76,0.00,,---,0.00,0.00,VWS V14.01,2013-02-02 06:12:00,
2013-02-02 01:17:00,14.7,8.8,30.46,WNW,286,0.0,0.0,77,0.00,,---,0.00,0.00,VWS V14.01,2013-02-02 06:17:00,
2013-02-02 01:22:00,14.7,8.5,30.46,WNW,286,0.0,0.0,76,0.00,,---,0.00,0.00,VWS V14.01,2013-02-02 06:22:00,
2013-02-02 01:27:00,14.7,8.5,30.47,WNW,286,0.0,0.0,76,0.00,,---,0.00,0.00,VWS V14.01,2013-02-02 06:27:00,
2013-02-02 01:30:00,14.7,8.8,30.47,WNW,286,0.0,0.0,77,0.00,,---,0.00,0.00,VWS V14.01,2013-02-02 06:30:00,
2013-02-02 01:32:00,14.7,8.8,30.47,WNW,286,0.0,0.0,77,0.00,,---,0.00,0.00,VWS V14.01,2013-02-02 06:32:00,
2013-02-02 01:37:00,14.6,8.7,30.47,WNW,286,0.0,0.0,77,0.00,,---,0.00,0.00,VWS V14.01,2013-02-02 06:37:00,
2013-02-02 01:42:00,14.6,9.0,30.47,WNW,286,0.0,0.0,78,0.00,,---,0.00,0.00,VWS V14.01,2013-02-02 06:42:00,
2013-02-02 01:48:00,14.5,8.9,30.46,WNW,286,0.0,0.0,78,0.00,,---,0.00,0.00,VWS V14.01,2013-02-02 06:48:00,
2013-02-02 01:53:00,14.5,8.9,30.46,WNW,286,0.0,0.0,78,0.00,,---,0.00,0.00,VWS V14.01,2013-02-02 06:53:00,
2013-02-02 01:58:00,14.4,9.1,30.47,WNW,286,0.0,0.0,79,0.00,,---,0.00,0.00,VWS V14.01,2013-02-02 06:58:00,
2013-02-02 02:00:00,14.3,9.0,30.46,WNW,286,0.0,0.0,79,0.00,,---,0.00,0.00,VWS V14.01,2013-02-02 07:00:00,
2013-02-02 02:03:00,14.3,9.3,30.46,WNW,286,0.0,0.0,80,0.00,,---,0.00,0.00,VWS V14.01,2013-02-02 07:03:00,
2013-02-02 02:08:00,14.1,9.1,30.46,WNW,287,0.0,0.0,80,0.00,,---,0.00,0.00,VWS V14.01,2013-02-02 07:08:00,
2013-02-02 02:13:00,14.0,9.0,30.46,WNW,286,0.0,1.0,80,0.00,,---,0.00,0.00,VWS V14.01,2013-02-02 07:13:00,
2013-02-02 02:18:00,13.9,9.2,30.45,WNW,286,0.0,1.0,81,0.00,,---,0.00,0.00,VWS V14.01,2013-02-02 07:18:00,
2013-02-02 02:23:00,13.8,9.1,30.45,WNW,286,0.0,1.0,81,0.00,,---,0.00,0.00,VWS V14.01,2013-02-02 07:23:00,
2013-02-02 02:28:00,13.8,9.1,30.46,WNW,286,0.0,1.0,81,0.00,,---,0.00,0.00,VWS V14.01,2013-02-02 07:28:00,
2013-02-02 02:30:00,13.7,9.0,30.46,WNW,286,0.0,1.0,81,0.00,,---,0.00,0.00,VWS V14.01,2013-02-02 07:30:00,
2013-02-02 02:34:00,13.7,9.0,30.46,WNW,286,0.0,0.0,81,0.00,,---,0.00,0.00,VWS V14.01,2013-02-02 07:34:00,
2013-02-02 02:39:00,13.7,9.0,30.46,WNW,286,0.0,0.0,81,0.00,,---,0.00,0.00,VWS V14.01,2013-02-02 07:39:00,
2013-02-02 02:44:00,13.7,9.0,30.46,WNW,286,0.0,0.0,81,0.00,,---,0.00,0.00,VWS V14.01,2013-02-02 07:44:00,
2013-02-02 02:49:00,13.7,9.2,30.45,WNW,286,0.0,0.0,82,0.00,,---,0.00,0.00,VWS V14.01,2013-02-02 07:49:00,
2013-02-02 02:54:00,13.8,9.3,30.45,WNW,286,0.0,0.0,82,0.00,,---,0.00,0.00,VWS V14.01,2013-02-02 07:54:00,
2013-02-02 02:59:00,13.8,9.3,30.44,WNW,286,0.0,0.0,82,0.00,,---,0.00,0.00,VWS V14.01,2013-02-02 07:59:00,
2013-02-02 03:00:00,13.9,9.4,30.44,WNW,286,0.0,0.0,82,0.00,,---,0.00,0.00,VWS V14.01,2013-02-02 08:00:00,
2013-02-02 03:06:00,14.0,9.8,30.44,WNW,286,0.0,0.0,83,0.00,,---,0.00,0.00,VWS V14.01,2013-02-02 08:06:00,
2013-02-02 03:11:00,14.3,9.8,30.45,WNW,286,0.0,0.0,82,0.00,,---,0.00,0.00,VWS V14.01,2013-02-02 08:11:00,
2013-02-02 03:16:00,14.5,9.7,30.45,WNW,287,0.0,0.0,81,0.00,,---,0.00,0.00,VWS V14.01,2013-02-02 08:16:00,
2013-02-02 03:21:00,14.6,9.8,30.46,WNW,286,0.0,0.0,81,0.00,,---,0.00,0.00,VWS V14.01,2013-02-02 08:21:00,
2013-02-02 03:26:00,14.7,9.9,30.46,WNW,286,0.0,0.0,81,0.00,,---,0.00,0.00,VWS V14.01,2013-02-02 08:26:00,
2013-02-02 03:30:00,14.8,10.0,30.46,WNW,286,0.0,0.0,81,0.00,,---,0.00,0.00,VWS V14.01,2013-02-02 08:30:00,
2013-02-02 03:31:00,14.8,10.0,30.46,WNW,286,0.0,0.0,81,0.00,,---,0.00,0.00,VWS V14.01,2013-02-02 08:31:00,
2013-02-02 03:36:00,14.8,10.0,30.46,WNW,286,0.0,0.0,81,0.00,,---,0.00,0.00,VWS V14.01,2013-02-02 08:36:00,
2013-02-02 03:41:00,14.8,10.0,30.46,WNW,286,0.0,0.0,81,0.00,,---,0.00,0.00,VWS V14.01,2013-02-02 08:41:00,
2013-02-02 03:46:00,14.8,10.0,30.47,WNW,286,0.0,0.0,81,0.00,,---,0.00,0.00,VWS V14.01,2013-02-02 08:46:00,
2013-02-02 03:52:00,14.9,10.1,30.46,WNW,286,0.0,0.0,81,0.00,,---,0.00,0.00,VWS V14.01,2013-02-02 08:52:00,
2013-02-02 03:57:00,14.9,9.9,30.46,WNW,286,0.0,0.0,80,0.00,,---,0.00,0.00,VWS V14.01,2013-02-02 08:57:00,
2013-02-02 04:00:00,15.0,10.0,30.46,WNW,286,0.0,0.0,80,0.00,,---,0.00,0.00,VWS V14.01,2013-02-02 09:00:00,
2013-02-02 04:02:00,15.0,10.0,30.46,WNW,286,0.0,0.0,80,0.00,,---,0.00,0.00,VWS V14.01,2013-02-02 09:02:00,
2013-02-02 04:07:00,15.0,10.0,30.46,WNW,286,0.0,0.0,80,0.00,,---,0.00,0.00,VWS V14.01,2013-02-02 09:07:00,
2013-02-02 04:12:00,15.1,10.1,30.46,WNW,286,0.0,1.0,80,0.00,,---,0.00,0.00,VWS V14.01,2013-02-02 09:12:00,
2013-02-02 04:17:00,15.2,9.9,30.47,WNW,286,0.0,2.0,79,0.00,,---,0.00,0.00,VWS V14.01,2013-02-02 09:17:00,
2013-02-02 04:22:00,15.3,9.7,30.47,WNW,286,1.0,2.0,78,0.00,,---,0.00,0.00,VWS V14.01,2013-02-02 09:22:00,
2013-02-02 04:27:00,15.4,9.8,30.46,WNW,286,0.0,2.0,78,0.00,,---,0.00,0.00,VWS V14.01,2013-02-02 09:27:00,
2013-02-02 04:30:00,15.4,9.8,30.46,WNW,286,0.0,2.0,78,0.00,,---,0.00,0.00,VWS V14.01,2013-02-02 09:30:00,
2013-02-02 04:32:00,15.4,9.8,30.46,WNW,286,0.0,0.0,78,0.00,,---,0.00,0.00,VWS V14.01,2013-02-02 09:32:00,
2013-02-02 04:37:00,15.5,9.9,30.46,WNW,287,0.0,0.0,78,0.00,,---,0.00,0.00,VWS V14.01,2013-02-02 09:37:00,
2013-02-02 04:43:00,15.5,9.9,30.45,WNW,286,0.0,0.0,78,0.00,,---,0.00,0.00,VWS V14.01,2013-02-02 09:43:00,
2013-02-02 04:48:00,15.4,9.8,30.45,WNW,286,0.0,0.0,78,0.00,,---,0.00,0.00,VWS V14.01,2013-02-02 09:48:00,
2013-02-02 04:53:00,15.4,9.8,30.45,WNW,286,0.0,0.0,78,0.00,,---,0.00,0.00,VWS V14.01,2013-02-02 09:53:00,
2013-02-02 04:58:00,15.4,9.8,30.46,WNW,286,0.0,0.0,78,0.00,,---,0.00,0.00,VWS V14.01,2013-02-02 09:58:00,
2013-02-02 05:00:00,15.4,9.8,30.45,WNW,286,0.0,0.0,78,0.00,,---,0.00,0.00,VWS V14.01,2013-02-02 10:00:00,
2013-02-02 05:03:00,15.3,9.7,30.45,WNW,286,0.0,0.0,78,0.00,,---,0.00,0.00,VWS V14.01,2013-02-02 10:03:00,
2013-02-02 05:08:00,15.3,9.7,30.46,WNW,286,0.0,0.0,78,0.00,,---,0.00,0.00,VWS V14.01,2013-02-02 10:08:00,
2013-02-02 05:13:00,15.3,9.7,30.46,WNW,286,0.0,0.0,78,0.00,,---,0.00,0.00,VWS V14.01,2013-02-02 10:13:00,
2013-02-02 05:18:00,15.2,9.6,30.46,WNW,286,0.0,0.0,78,0.00,,---,0.00,0.00,VWS V14.01,2013-02-02 10:18:00,
2013-02-02 05:24:00,15.2,9.6,30.46,WNW,286,0.0,0.0,78,0.00,,---,0.00,0.00,VWS V14.01,2013-02-02 10:24:00,
2013-02-02 05:29:00,15.1,9.5,30.46,WNW,286,0.0,0.0,78,0.00,,---,0.00,0.00,VWS V14.01,2013-02-02 10:29:00,
2013-02-02 05:30:00,15.1,9.5,30.45,WNW,286,0.0,0.0,78,0.00,,---,0.00,0.00,VWS V14.01,2013-02-02 10:30:00,
2013-02-02 05:34:00,15.1,9.8,30.46,WNW,286,0.0,0.0,79,0.00,,---,0.00,0.00,VWS V14.01,2013-02-02 10:34:00,
2013-02-02 05:39:00,15.1,9.8,30.46,WNW,286,0.0,0.0,79,0.00,,---,0.00,0.00,VWS V14.01,2013-02-02 10:39:00,
2013-02-02 05:44:00,15.1,9.8,30.45,WNW,286,0.0,0.0,79,0.00,,---,0.00,0.00,VWS V14.01,2013-02-02 10:44:00,
2013-02-02 05:49:00,15.1,9.8,30.46,WNW,286,0.0,0.0,79,0.00,,---,0.00,0.00,VWS V14.01,2013-02-02 10:49:00,
2013-02-02 05:54:00,15.1,9.8,30.46,WNW,286,0.0,0.0,79,0.00,,---,0.00,0.00,VWS V14.01,2013-02-02 10:54:00,
2013-02-02 05:59:00,15.2,10.1,30.46,WNW,286,0.0,0.0,80,0.00,,---,0.00,0.00,VWS V14.01,2013-02-02 10:59:00,
2013-02-02 06:00:00,15.2,10.1,30.46,WNW,286,0.0,0.0,80,0.00,,---,0.00,0.00,VWS V14.01,2013-02-02 11:00:00,
2013-02-02 06:04:00,15.2,10.1,30.46,WNW,287,0.0,0.0,80,0.00,,---,0.00,0.00,VWS V14.01,2013-02-02 11:04:00,
2013-02-02 06:10:00,15.3,10.2,30.46,WNW,286,0.0,0.0,80,0.00,,---,0.00,0.00,VWS V14.01,2013-02-02 11:10:00,
2013-02-02 06:15:00,15.3,10.2,30.46,WNW,286,0.0,0.0,80,0.00,,---,0.00,0.00,VWS V14.01,2013-02-02 11:15:00,
2013-02-02 06:20:00,15.2,9.9,30.46,WNW,286,0.0,0.0,79,0.00,,---,0.00,0.00,VWS V14.01,2013-02-02 11:20:00,
2013-02-02 06:25:00,15.3,10.0,30.46,WNW,286,0.0,0.0,79,0.00,,---,0.00,0.00,VWS V14.01,2013-02-02 11:25:00,
2013-02-02 06:30:00,15.3,10.0,30.45,WNW,287,0.0,1.0,79,0.00,,---,0.00,0.00,VWS V14.01,2013-02-02 11:30:00,
2013-02-02 06:35:00,15.4,9.8,30.46,WNW,286,0.0,0.0,78,0.00,,---,0.00,0.00,VWS V14.01,2013-02-02 11:35:00,
2013-02-02 06:40:00,15.4,10.1,30.46,WNW,286,0.0,0.0,79,0.00,,---,0.00,0.00,VWS V14.01,2013-02-02 11:40:00,
2013-02-02 06:46:00,15.4,10.1,30.46,WNW,286,0.0,1.0,79,0.00,,---,0.00,0.00,VWS V14.01,2013-02-02 11:46:00,
2013-02-02 06:51:00,15.4,9.8,30.47,WNW,286,0.0,1.0,78,0.00,,---,0.00,0.00,VWS V14.01,2013-02-02 11:51:00,
2013-02-02 06:56:00,15.3,9.7,30.47,WNW,286,0.0,1.0,78,0.00,,---,0.00,0.00,VWS V14.01,2013-02-02 11:56:00,
2013-02-02 07:00:00,15.3,10.0,30.47,WNW,286,0.0,1.0,79,0.00,,---,0.00,0.00,VWS V14.01,2013-02-02 12:00:00,
2013-02-02 07:01:00,15.3,10.0,30.47,WNW,286,0.0,1.0,79,0.00,,---,0.00,0.00,VWS V14.01,2013-02-02 12:01:00,
2013-02-02 07:06:00,15.2,9.9,30.48,WNW,286,0.0,0.0,79,0.00,,---,0.00,0.00,VWS V14.01,2013-02-02 12:06:00,
2013-02-02 07:11:00,15.2,9.9,30.47,WNW,287,0.0,0.0,79,0.00,,---,0.00,0.00,VWS V14.01,2013-02-02 12:11:00,
2013-02-02 07:16:00,15.2,10.1,30.48,WNW,286,0.0,0.0,80,0.00,,---,0.00,0.00,VWS V14.01,2013-02-02 12:16:00,
2013-02-02 07:21:00,15.1,10.1,30.47,WNW,286,0.0,0.0,80,0.00,,---,0.00,0.00,VWS V14.01,2013-02-02 12:21:00,
2013-02-02 07:27:00,15.0,10.0,30.47,WNW,286,0.0,0.0,80,0.00,,---,0.00,5.00,VWS V14.01,2013-02-02 12:27:00,
2013-02-02 07:30:00,15.1,10.3,30.47,SSE,148,0.0,2.0,81,0.00,,---,0.00,7.00,VWS V14.01,2013-02-02 12:30:00,
2013-02-02 07:32:00,15.1,10.3,30.47,SSE,148,0.0,2.0,81,0.00,,---,0.00,7.00,VWS V14.01,2013-02-02 12:32:00,
2013-02-02 07:37:00,15.3,10.5,30.48,South,188,2.0,3.0,81,0.00,,---,0.00,9.00,VWS V14.01,2013-02-02 12:37:00,
2013-02-02 07:42:00,15.5,10.4,30.48,South,188,2.0,3.0,80,0.00,,---,0.00,11.00,VWS V14.01,2013-02-02 12:42:00,
2013-02-02 07:47:00,15.8,9.9,30.47,East,86,0.0,3.0,77,0.00,,---,0.00,12.00,VWS V14.01,2013-02-02 12:47:00,
2013-02-02 07:52:00,16.1,9.9,30.48,South,182,2.0,3.0,76,0.00,,---,0.00,16.00,VWS V14.01,2013-02-02 12:52:00,
2013-02-02 07:57:00,16.3,10.1,30.48,NE,35,0.0,3.0,76,0.00,,---,0.00,18.00,VWS V14.01,2013-02-02 12:57:00,
2013-02-02 08:00:00,16.5,10.3,30.48,SE,138,0.0,3.0,76,0.00,,---,0.00,19.00,VWS V14.01,2013-02-02 13:00:00,
2013-02-02 08:02:00,16.6,10.1,30.48,SE,138,0.0,2.0,75,0.00,,---,0.00,19.00,VWS V14.01,2013-02-02 13:02:00,
2013-02-02 08:07:00,16.7,9.9,30.48,South,185,2.0,3.0,74,0.00,,---,0.00,23.00,VWS V14.01,2013-02-02 13:07:00,
2013-02-02 08:13:00,16.8,10.0,30.48,South,180,0.0,4.0,74,0.00,,---,0.00,25.00,VWS V14.01,2013-02-02 13:13:00,
2013-02-02 08:18:00,16.9,9.8,30.47,SSE,159,0.0,4.0,73,0.00,,---,0.00,26.00,VWS V14.01,2013-02-02 13:18:00,
2013-02-02 08:23:00,17.2,9.7,30.47,South,175,1.0,9.0,72,0.00,,---,0.00,28.00,VWS V14.01,2013-02-02 13:23:00,
2013-02-02 08:28:00,17.4,9.6,30.47,SSW,198,0.0,9.0,71,0.00,,---,0.00,30.00,VWS V14.01,2013-02-02 13:28:00,
2013-02-02 08:30:00,17.6,9.8,30.47,SSW,205,2.0,9.0,71,0.00,,---,0.00,33.00,VWS V14.01,2013-02-02 13:30:00,
2013-02-02 08:33:00,17.7,9.6,30.47,SW,230,3.0,3.0,70,0.00,,---,0.00,33.00,VWS V14.01,2013-02-02 13:33:00,
2013-02-02 08:38:00,18.0,9.9,30.47,South,170,3.0,5.0,70,0.00,,---,0.00,35.00,VWS V14.01,2013-02-02 13:38:00,
2013-02-02 08:43:00,18.4,9.9,30.47,South,177,0.0,10.0,69,0.00,,---,0.00,35.00,VWS V14.01,2013-02-02 13:43:00,
2013-02-02 08:48:00,18.7,10.2,30.47,SSW,195,0.0,10.0,69,0.00,,---,0.00,35.00,VWS V14.01,2013-02-02 13:48:00,
2013-02-02 08:53:00,19.0,10.2,30.47,South,170,3.0,10.0,68,0.00,,---,0.00,33.00,VWS V14.01,2013-02-02 13:53:00,
2013-02-02 08:59:00,19.3,10.5,30.46,SW,219,3.0,11.0,68,0.00,,---,0.00,35.00,VWS V14.01,2013-02-02 13:59:00,
2013-02-02 09:00:00,19.6,10.4,30.46,South,170,0.0,13.0,67,0.00,,---,0.00,37.00,VWS V14.01,2013-02-02 14:00:00,
2013-02-02 09:04:00,19.7,10.2,30.46,SSE,156,4.0,7.0,66,0.00,,---,0.00,37.00,VWS V14.01,2013-02-02 14:04:00,
2013-02-02 09:09:00,20.0,10.5,30.46,SSW,210,7.0,7.0,66,0.00,,---,0.00,62.00,VWS V14.01,2013-02-02 14:09:00,
2013-02-02 09:14:00,20.3,10.4,30.47,SW,223,3.0,10.0,65,0.00,,---,0.00,76.00,VWS V14.01,2013-02-02 14:14:00,
2013-02-02 09:19:00,20.6,10.7,30.46,SW,235,0.0,14.0,65,0.00,,---,0.00,114.00,VWS V14.01,2013-02-02 14:19:00,
2013-02-02 09:24:00,20.9,11.0,30.46,SSE,148,0.0,14.0,65,0.00,,---,0.00,121.00,VWS V14.01,2013-02-02 14:24:00,
2013-02-02 09:29:00,21.2,10.9,30.46,SSW,199,3.0,14.0,64,0.00,,---,0.00,146.00,VWS V14.01,2013-02-02 14:29:00,
2013-02-02 09:30:00,21.4,11.1,30.46,SSE,161,4.0,14.0,64,0.00,,---,0.00,163.00,VWS V14.01,2013-02-02 14:30:00,
2013-02-02 09:34:00,21.5,10.9,30.46,SSE,152,2.0,11.0,63,0.00,,---,0.00,165.00,VWS V14.01,2013-02-02 14:34:00,
2013-02-02 09:39:00,21.7,11.4,30.45,South,178,0.0,11.0,64,0.00,,---,0.00,181.00,VWS V14.01,2013-02-02 14:39:00,
2013-02-02 09:44:00,22.0,11.7,30.45,WSW,239,4.0,11.0,64,0.00,,---,0.00,186.00,VWS V14.01,2013-02-02 14:44:00,
2013-02-02 09:50:00,22.4,11.7,30.45,North,349,0.0,11.0,63,0.00,,---,0.00,209.00,VWS V14.01,2013-02-02 14:50:00,
2013-02-02 09:55:00,22.6,11.9,30.45,SSW,211,0.0,11.0,63,0.00,,---,0.00,214.00,VWS V14.01,2013-02-02 14:55:00,
2013-02-02 10:00:00,22.9,11.8,30.44,SSW,209,3.0,11.0,62,0.00,,---,0.00,202.00,VWS V14.01,2013-02-02 15:00:00,
2013-02-02 10:05:00,23.1,12.4,30.44,NNW,333,0.0,3.0,63,0.00,,---,0.00,162.00,VWS V14.01,2013-02-02 15:05:00,
2013-02-02 10:10:00,23.4,12.3,30.44,ESE,115,0.0,6.0,62,0.00,,---,0.00,135.00,VWS V14.01,2013-02-02 15:10:00,
2013-02-02 10:15:00,23.4,12.3,30.44,WSW,250,0.0,6.0,62,0.00,,---,0.00,153.00,VWS V14.01,2013-02-02 15:15:00,
2013-02-02 10:20:00,23.5,12.4,30.43,SW,235,0.0,6.0,62,0.00,,---,0.00,151.00,VWS V14.01,2013-02-02 15:20:00,
2013-02-02 10:25:00,23.6,12.5,30.43,WSW,256,4.0,6.0,62,0.00,,---,0.00,160.00,VWS V14.01,2013-02-02 15:25:00,
2013-02-02 10:30:00,23.6,12.9,30.42,SSW,210,4.0,7.0,63,0.00,,---,0.00,206.00,VWS V14.01,2013-02-02 15:30:00,
2013-02-02 10:35:00,23.7,13.0,30.43,SSE,155,2.0,9.0,63,0.00,,---,0.00,220.00,VWS V14.01,2013-02-02 15:35:00,
2013-02-02 10:40:00,23.9,13.1,30.42,South,185,0.0,9.0,63,0.00,,---,0.00,227.00,VWS V14.01,2013-02-02 15:40:00,
2013-02-02 10:45:00,24.0,12.9,30.41,SSW,211,0.0,9.0,62,0.00,,---,0.00,257.00,VWS V14.01,2013-02-02 15:45:00,
2013-02-02 10:50:00,24.2,13.1,30.41,SE,146,0.0,10.0,62,0.00,,---,0.00,264.00,VWS V14.01,2013-02-02 15:50:00,
2013-02-02 10:55:00,24.3,13.2,30.41,SSW,212,7.0,11.0,62,0.00,,---,0.00,343.00,VWS V14.01,2013-02-02 15:55:00,
2013-02-02 11:00:00,24.7,13.9,30.40,SSW,208,6.0,11.0,63,0.00,,---,0.00,325.00,VWS V14.01,2013-02-02 16:00:00,
2013-02-02 11:05:00,25.1,13.6,30.40,SW,217,4.0,12.0,61,0.00,,---,0.00,290.00,VWS V14.01,2013-02-02 16:05:00,
2013-02-02 11:10:00,25.2,13.3,30.40,South,171,4.0,14.0,60,0.00,,---,0.00,353.00,VWS V14.01,2013-02-02 16:10:00,
2013-02-02 11:15:00,25.4,13.8,30.40,East,90,0.0,14.0,61,0.00,,---,0.00,285.00,VWS V14.01,2013-02-02 16:15:00,
2013-02-02 11:20:00,25.8,13.9,30.40,SSE,159,0.0,14.0,60,0.00,,---,0.00,341.00,VWS V14.01,2013-02-02 16:20:00,
2013-02-02 11:26:00,26.2,13.8,30.40,SSW,203,6.0,14.0,59,0.00,,---,0.00,397.00,VWS V14.01,2013-02-02 16:26:00,
2013-02-02 11:30:00,26.8,14.4,30.39,WSW,241,1.0,14.0,59,0.00,,---,0.00,527.00,VWS V14.01,2013-02-02 16:30:00,
2013-02-02 11:31:00,26.7,14.3,30.39,NNE,26,3.0,14.0,59,0.00,,---,0.00,501.00,VWS V14.01,2013-02-02 16:31:00,
2013-02-02 11:36:00,27.2,14.0,30.39,SSE,165,5.0,6.0,57,0.00,,---,0.00,480.00,VWS V14.01,2013-02-02 16:36:00,
2013-02-02 11:41:00,27.5,14.7,30.38,WSW,243,3.0,7.0,58,0.00,,---,0.00,441.00,VWS V14.01,2013-02-02 16:41:00,
2013-02-02 11:46:00,28.1,14.4,30.38,SE,142,7.0,7.0,56,0.00,,---,0.00,417.00,VWS V14.01,2013-02-02 16:46:00,
2013-02-02 11:51:00,28.1,14.4,30.38,NNE,15,0.0,7.0,56,0.00,,---,0.00,485.00,VWS V14.01,2013-02-02 16:51:00,
2013-02-02 11:56:00,28.3,14.2,30.38,SSE,158,0.0,7.0,55,0.00,,---,0.00,559.00,VWS V14.01,2013-02-02 16:56:00,
2013-02-02 12:00:00,28.6,14.5,30.37,ESE,116,5.0,9.0,55,0.00,,---,0.00,485.00,VWS V14.01,2013-02-02 17:00:00,
2013-02-02 12:01:00,28.5,14.4,30.37,ESE,122,5.0,9.0,55,0.00,,---,0.00,485.00,VWS V14.01,2013-02-02 17:01:00,
2013-02-02 12:06:00,28.7,14.6,30.37,SSW,207,1.0,7.0,55,0.00,,---,0.00,243.00,VWS V14.01,2013-02-02 17:06:00,
2013-02-02 12:11:00,28.8,14.7,30.37,South,180,1.0,10.0,55,0.00,,---,0.00,236.00,VWS V14.01,2013-02-02 17:11:00,
2013-02-02 12:16:00,29.1,15.4,30.36,SSE,164,4.0,10.0,56,0.00,,---,0.00,603.00,VWS V14.01,2013-02-02 17:16:00,
2013-02-02 12:21:00,29.8,15.6,30.35,SSE,155,1.0,10.0,55,0.00,,---,0.00,496.00,VWS V14.01,2013-02-02 17:21:00,
2013-02-02 12:27:00,30.1,14.6,30.35,South,189,8.0,12.0,52,0.00,,---,0.00,496.00,VWS V14.01,2013-02-02 17:27:00,
2013-02-02 12:30:00,30.4,15.8,30.34,SSE,168,0.0,12.0,54,0.00,,---,0.00,617.00,VWS V14.01,2013-02-02 17:30:00,
2013-02-02 12:32:00,30.4,15.8,30.34,SE,140,1.0,12.0,54,0.00,,---,0.00,617.00,VWS V14.01,2013-02-02 17:32:00,
2013-02-02 12:37:00,30.8,14.8,30.34,SSE,165,0.0,6.0,51,0.00,,---,0.00,580.00,VWS V14.01,2013-02-02 17:37:00,
2013-02-02 12:42:00,31.1,15.5,30.34,SSE,158,4.0,6.0,52,0.00,,---,0.00,229.00,VWS V14.01,2013-02-02 17:42:00,
2013-02-02 12:47:00,31.2,15.2,30.34,SW,219,5.0,7.0,51,0.00,,---,0.00,239.00,VWS V14.01,2013-02-02 17:47:00,
2013-02-02 12:52:00,31.4,15.8,30.34,SSE,163,3.0,10.0,52,0.00,,---,0.00,432.00,VWS V14.01,2013-02-02 17:52:00,
2013-02-02 12:57:00,31.7,16.1,30.34,SSE,157,1.0,10.0,52,0.00,,---,0.00,213.00,VWS V14.01,2013-02-02 17:57:00,
2013-02-02 13:00:00,31.8,16.2,30.34,West,263,0.0,10.0,52,0.00,,---,0.00,155.00,VWS V14.01,2013-02-02 18:00:00,
2013-02-02 13:02:00,31.7,16.1,30.34,West,263,0.0,0.0,52,0.00,,---,0.00,146.00,VWS V14.01,2013-02-02 18:02:00,
2013-02-02 13:07:00,31.7,16.1,30.33,SW,223,0.0,9.0,52,0.00,,---,0.00,162.00,VWS V14.01,2013-02-02 18:07:00,
2013-02-02 13:12:00,31.6,16.5,30.33,SW,228,5.0,9.0,53,0.00,,---,0.00,211.00,VWS V14.01,2013-02-02 18:12:00,
2013-02-02 13:18:00,31.4,16.3,30.32,South,190,2.0,9.0,53,0.00,,---,0.00,202.00,VWS V14.01,2013-02-02 18:18:00,
2013-02-02 13:23:00,31.2,16.1,30.32,SE,126,0.0,9.0,53,0.00,,---,0.00,225.00,VWS V14.01,2013-02-02 18:23:00,
2013-02-02 13:28:00,31.1,16.0,30.31,East,97,0.0,9.0,53,0.00,,---,0.00,192.00,VWS V14.01,2013-02-02 18:28:00,
2013-02-02 13:30:00,31.0,16.7,30.31,SE,142,0.0,9.0,55,0.00,,---,0.00,223.00,VWS V14.01,2013-02-02 18:30:00,
2013-02-02 13:33:00,31.0,16.7,30.31,SSE,158,0.0,2.0,55,0.00,,---,0.00,250.00,VWS V14.01,2013-02-02 18:33:00,
2013-02-02 13:38:00,31.5,17.2,30.30,SSE,167,0.0,4.0,55,0.00,,---,0.00,287.00,VWS V14.01,2013-02-02 18:38:00,
2013-02-02 13:43:00,31.8,16.6,30.30,NE,51,3.0,10.0,53,0.00,,---,0.00,197.00,VWS V14.01,2013-02-02 18:43:00,
2013-02-02 13:48:00,31.7,16.5,30.29,South,173,0.0,10.0,53,0.00,,---,0.00,188.00,VWS V14.01,2013-02-02 18:48:00,
2013-02-02 13:53:00,31.7,17.0,30.29,ESE,111,3.0,10.0,54,0.00,,---,0.00,255.00,VWS V14.01,2013-02-02 18:53:00,
2013-02-02 13:58:00,31.7,17.0,30.29,East,95,0.0,10.0,54,0.00,,---,0.00,302.00,VWS V14.01,2013-02-02 18:58:00,
2013-02-02 14:00:00,31.9,17.2,30.29,East,96,0.0,10.0,54,0.00,,---,0.00,295.00,VWS V14.01,2013-02-02 19:00:00,
2013-02-02 14:03:00,32.0,16.8,30.28,SE,138,5.0,7.0,53,0.00,,---,0.00,244.00,VWS V14.01,2013-02-02 19:03:00,
2013-02-02 14:08:00,32.1,16.9,30.28,SSE,161,6.0,7.0,53,0.00,,---,0.00,519.00,VWS V14.01,2013-02-02 19:08:00,
2013-02-02 14:13:00,32.0,16.4,30.28,South,173,3.0,7.0,52,0.00,,---,0.00,200.00,VWS V14.01,2013-02-02 19:13:00,
2013-02-02 14:19:00,31.9,16.7,30.27,SE,138,2.0,7.0,53,0.00,,---,0.00,343.00,VWS V14.01,2013-02-02 19:19:00,
2013-02-02 14:24:00,31.9,16.3,30.27,ESE,117,0.0,7.0,52,0.00,,---,0.00,225.00,VWS V14.01,2013-02-02 19:24:00,
2013-02-02 14:29:00,32.0,16.4,30.27,SSE,165,5.0,8.0,52,0.00,,---,0.00,165.00,VWS V14.01,2013-02-02 19:29:00,
2013-02-02 14:30:00,32.0,15.9,30.27,South,171,4.0,11.0,51,0.00,,---,0.00,139.00,VWS V14.01,2013-02-02 19:30:00,
2013-02-02 14:34:00,32.0,16.4,30.27,SSE,167,2.0,5.0,52,0.00,,---,0.00,130.00,VWS V14.01,2013-02-02 19:34:00,
2013-02-02 14:39:00,31.8,15.8,30.27,SSE,163,4.0,12.0,51,0.00,,---,0.00,156.00,VWS V14.01,2013-02-02 19:39:00,
2013-02-02 14:44:00,31.6,16.0,30.27,SSW,194,2.0,12.0,52,0.00,,---,0.00,81.00,VWS V14.01,2013-02-02 19:44:00,
2013-02-02 14:49:00,31.5,15.9,30.27,South,189,2.0,12.0,52,0.00,,---,0.00,102.00,VWS V14.01,2013-02-02 19:49:00,
2013-02-02 14:54:00,31.4,15.8,30.27,NE,37,3.0,12.0,52,0.00,,---,0.00,107.00,VWS V14.01,2013-02-02 19:54:00,
2013-02-02 14:59:00,31.3,15.7,30.27,SSW,197,5.0,12.0,52,0.00,,---,0.00,95.00,VWS V14.01,2013-02-02 19:59:00,
2013-02-02 15:00:00,31.2,16.1,30.26,SSE,164,0.0,12.0,53,0.00,,---,0.00,91.00,VWS V14.01,2013-02-02 20:00:00,
2013-02-02 15:05:00,31.2,15.6,30.26,SSE,155,0.0,4.0,52,0.00,,---,0.00,84.00,VWS V14.01,2013-02-02 20:05:00,
2013-02-02 15:10:00,31.1,16.0,30.27,South,176,3.0,7.0,53,0.00,,---,0.00,70.00,VWS V14.01,2013-02-02 20:10:00,
2013-02-02 15:15:00,31.0,15.9,30.26,SE,130,3.0,7.0,53,0.00,,---,0.00,84.00,VWS V14.01,2013-02-02 20:15:00,
2013-02-02 15:20:00,30.9,14.9,30.26,SE,128,0.0,7.0,51,0.00,,---,0.00,95.00,VWS V14.01,2013-02-02 20:20:00,
2013-02-02 15:25:00,30.8,15.3,30.26,SSW,212,5.0,7.0,52,0.00,,---,0.00,100.00,VWS V14.01,2013-02-02 20:25:00,
2013-02-02 15:30:00,30.8,15.7,30.26,South,175,0.0,7.0,53,0.00,,---,0.00,95.00,VWS V14.01,2013-02-02 20:30:00,
2013-02-02 15:35:00,30.7,15.6,30.25,SSW,203,5.0,9.0,53,0.00,,---,0.00,83.00,VWS V14.01,2013-02-02 20:35:00,
2013-02-02 15:40:00,30.6,15.9,30.25,SE,130,3.0,9.0,54,0.00,,---,0.00,113.00,VWS V14.01,2013-02-02 20:40:00,
2013-02-02 15:46:00,30.6,16.8,30.25,SSE,161,4.0,9.0,56,0.00,,---,0.00,95.00,VWS V14.01,2013-02-02 20:46:00,
2013-02-02 15:51:00,30.6,17.6,30.25,South,182,6.0,9.0,58,0.00,,---,0.00,81.00,VWS V14.01,2013-02-02 20:51:00,
2013-02-02 15:56:00,30.5,19.0,30.25,South,186,4.0,15.0,62,0.00,,---,0.00,113.00,VWS V14.01,2013-02-02 20:56:00,
2013-02-02 16:00:00,30.4,20.4,30.25,SSE,167,0.0,15.0,66,0.00,,---,0.00,139.00,VWS V14.01,2013-02-02 21:00:00,
2013-02-02 16:01:00,30.5,20.1,30.25,South,171,12.0,15.0,65,0.00,,---,0.00,139.00,VWS V14.01,2013-02-02 21:01:00,
2013-02-02 16:06:00,30.3,21.4,30.25,SSW,194,1.0,7.0,69,0.00,,---,0.00,163.00,VWS V14.01,2013-02-02 21:06:00,
2013-02-02 16:11:00,30.2,21.3,30.25,South,174,0.0,7.0,69,0.00,,---,0.00,114.00,VWS V14.01,2013-02-02 21:11:00,
2013-02-02 16:16:00,30.1,20.8,30.24,SW,216,4.0,7.0,68,0.00,,---,0.00,98.00,VWS V14.01,2013-02-02 21:16:00,
2013-02-02 16:22:00,30.1,20.8,30.24,SSW,198,7.0,9.0,68,0.00,,---,0.00,79.00,VWS V14.01,2013-02-02 21:22:00,
2013-02-02 16:27:00,30.0,21.1,30.24,SSE,147,6.0,13.0,69,0.00,,---,0.00,111.00,VWS V14.01,2013-02-02 21:27:00,
2013-02-02 16:30:00,30.0,21.1,30.23,South,175,2.0,13.0,69,0.00,,---,0.00,90.00,VWS V14.01,2013-02-02 21:30:00,
2013-02-02 16:32:00,30.0,21.1,30.23,South,175,4.0,13.0,69,0.00,,---,0.00,90.00,VWS V14.01,2013-02-02 21:32:00,
2013-02-02 16:37:00,30.0,21.1,30.24,SSW,197,0.0,6.0,69,0.00,,---,0.00,69.00,VWS V14.01,2013-02-02 21:37:00,
2013-02-02 16:42:00,30.0,21.1,30.24,SSE,159,3.0,6.0,69,0.00,,---,0.00,67.00,VWS V14.01,2013-02-02 21:42:00,
2013-02-02 16:47:00,30.0,20.7,30.24,South,178,3.0,6.0,68,0.00,,---,0.00,54.00,VWS V14.01,2013-02-02 21:47:00,
2013-02-02 16:52:00,29.9,20.3,30.24,SSE,158,4.0,10.0,67,0.00,,---,0.00,35.00,VWS V14.01,2013-02-02 21:52:00,
2013-02-02 16:57:00,29.9,20.6,30.23,SSE,159,0.0,10.0,68,0.00,,---,0.00,30.00,VWS V14.01,2013-02-02 21:57:00,
2013-02-02 17:00:00,29.9,21.0,30.23,WSW,240,0.0,10.0,69,0.00,,---,0.00,21.00,VWS V14.01,2013-02-02 22:00:00,
2013-02-02 17:03:00,29.8,20.9,30.23,SSW,211,4.0,4.0,69,0.00,,---,0.00,19.00,VWS V14.01,2013-02-02 22:03:00,
2013-02-02 17:08:00,29.7,21.1,30.23,WSW,237,1.0,6.0,70,0.00,,---,0.00,14.00,VWS V14.01,2013-02-02 22:08:00,
2013-02-02 17:13:00,29.7,21.1,30.23,SSW,207,0.0,6.0,70,0.00,,---,0.00,14.00,VWS V14.01,2013-02-02 22:13:00,
2013-02-02 17:18:00,29.6,21.0,30.23,West,259,4.0,8.0,70,0.00,,---,0.00,11.00,VWS V14.01,2013-02-02 22:18:00,
2013-02-02 17:23:00,29.5,20.9,30.23,South,171,4.0,8.0,70,0.00,,---,0.00,12.00,VWS V14.01,2013-02-02 22:23:00,
2013-02-02 17:28:00,29.4,20.5,30.23,SSW,205,3.0,8.0,69,0.00,,---,0.00,11.00,VWS V14.01,2013-02-02 22:28:00,
2013-02-02 17:30:00,29.5,20.6,30.23,SSW,205,0.0,8.0,69,0.00,,---,0.00,7.00,VWS V14.01,2013-02-02 22:30:00,
2013-02-02 17:33:00,29.5,20.6,30.23,SSW,205,0.0,1.0,69,0.00,,---,0.00,7.00,VWS V14.01,2013-02-02 22:33:00,
2013-02-02 17:38:00,29.5,20.6,30.23,South,174,3.0,9.0,69,0.00,,---,0.00,5.00,VWS V14.01,2013-02-02 22:38:00,
2013-02-02 17:43:00,29.6,20.7,30.22,South,184,0.0,9.0,69,0.00,,---,0.00,0.00,VWS V14.01,2013-02-02 22:43:00,
2013-02-02 17:48:00,29.5,20.6,30.22,SW,222,6.0,9.0,69,0.00,,---,0.00,0.00,VWS V14.01,2013-02-02 22:48:00,
2013-02-02 17:54:00,29.5,20.6,30.23,SW,222,0.0,9.0,69,0.00,,---,0.00,0.00,VWS V14.01,2013-02-02 22:54:00,
2013-02-02 17:59:00,29.5,20.6,30.22,WSW,252,0.0,9.0,69,0.00,,---,0.00,0.00,VWS V14.01,2013-02-02 22:59:00,
2013-02-02 18:00:00,29.5,20.9,30.22,SW,219,3.0,9.0,70,0.00,,---,0.00,0.00,VWS V14.01,2013-02-02 23:00:00,
2013-02-02 18:04:00,29.5,20.9,30.22,SSE,160,1.0,1.0,70,0.00,,---,0.00,0.00,VWS V14.01,2013-02-02 23:04:00,
2013-02-02 18:09:00,29.5,21.3,30.22,South,181,3.0,5.0,71,0.00,,---,0.00,0.00,VWS V14.01,2013-02-02 23:09:00,
2013-02-02 18:14:00,29.4,21.8,30.22,SSW,213,4.0,7.0,73,0.00,,---,0.00,0.00,VWS V14.01,2013-02-02 23:14:00,
2013-02-02 18:19:00,29.2,22.3,30.22,SW,220,4.0,7.0,75,0.00,,---,0.00,0.00,VWS V14.01,2013-02-02 23:19:00,
2013-02-02 18:24:00,29.0,22.7,30.22,SSW,213,0.0,7.0,77,0.00,,---,0.00,0.00,VWS V14.01,2013-02-02 23:24:00,
2013-02-02 18:29:00,28.9,22.9,30.22,South,171,0.0,7.0,78,0.00,,---,0.00,0.00,VWS V14.01,2013-02-02 23:29:00,
2013-02-02 18:30:00,28.8,23.1,30.22,SW,214,2.0,7.0,79,0.00,,---,0.00,0.00,VWS V14.01,2013-02-02 23:30:00,
2013-02-02 18:35:00,28.7,23.0,30.22,South,177,4.0,7.0,79,0.00,,---,0.00,0.00,VWS V14.01,2013-02-02 23:35:00,
2013-02-02 18:40:00,28.5,23.4,30.22,SW,227,0.0,7.0,81,0.00,,---,0.00,0.00,VWS V14.01,2013-02-02 23:40:00,
2013-02-02 18:45:00,28.4,23.6,30.21,SW,227,0.0,7.0,82,0.00,,---,0.00,0.00,VWS V14.01,2013-02-02 23:45:00,
2013-02-02 18:50:00,28.2,23.7,30.21,SW,227,0.0,7.0,83,0.00,,---,0.00,0.00,VWS V14.01,2013-02-02 23:50:00,
2013-02-02 18:55:00,28.0,23.8,30.21,SW,232,0.0,7.0,84,0.00,,---,0.00,0.00,VWS V14.01,2013-02-02 23:55:00,
2013-02-02 19:00:00,27.9,23.7,30.21,SW,232,0.0,7.0,84,0.00,,---,0.00,0.00,VWS V14.01,2013-02-03 00:00:00,
2013-02-02 19:05:00,27.7,23.5,30.21,SW,232,0.0,0.0,84,0.00,,---,0.00,0.00,VWS V14.01,2013-02-03 00:05:00,
2013-02-02 19:10:00,27.6,23.7,30.21,SW,232,0.0,2.0,85,0.00,,---,0.00,0.00,VWS V14.01,2013-02-03 00:10:00,
2013-02-02 19:15:00,27.6,23.7,30.21,SW,232,0.0,2.0,85,0.00,,---,0.00,0.00,VWS V14.01,2013-02-03 00:15:00,
2013-02-02 19:21:00,27.6,23.7,30.20,SW,232,0.0,2.0,85,0.00,,---,0.00,0.00,VWS V14.01,2013-02-03 00:21:00,
2013-02-02 19:26:00,27.6,23.7,30.21,SW,232,0.0,2.0,85,0.00,,---,0.00,0.00,VWS V14.01,2013-02-03 00:26:00,
2013-02-02 19:30:00,27.6,24.0,30.21,SW,232,0.0,2.0,86,0.00,,---,0.00,0.00,VWS V14.01,2013-02-03 00:30:00,
2013-02-02 19:31:00,27.6,24.0,30.21,SW,232,0.0,2.0,86,0.00,,---,0.00,0.00,VWS V14.01,2013-02-03 00:31:00,
2013-02-02 19:36:00,27.6,24.0,30.21,SW,232,0.0,0.0,86,0.00,,---,0.00,0.00,VWS V14.01,2013-02-03 00:36:00,
2013-02-02 19:41:00,27.7,24.1,30.20,SW,236,0.0,0.0,86,0.00,,---,0.00,0.00,VWS V14.01,2013-02-03 00:41:00,
2013-02-02 19:46:00,27.7,24.1,30.20,SW,236,0.0,0.0,86,0.00,,---,0.00,0.00,VWS V14.01,2013-02-03 00:46:00,
2013-02-02 19:51:00,27.7,24.1,30.21,SSW,213,0.0,5.0,86,0.00,,---,0.00,0.00,VWS V14.01,2013-02-03 00:51:00,
2013-02-02 19:56:00,27.7,24.3,30.20,SSW,213,0.0,5.0,87,0.00,,---,0.00,0.00,VWS V14.01,2013-02-03 00:56:00,
2013-02-02 20:00:00,27.6,24.2,30.20,SSW,213,0.0,5.0,87,0.00,,---,0.00,0.00,VWS V14.01,2013-02-03 01:00:00,
2013-02-02 20:01:00,27.7,24.3,30.20,SSW,213,0.0,5.0,87,0.00,,---,0.00,0.00,VWS V14.01,2013-02-03 01:01:00,
2013-02-02 20:06:00,27.6,24.2,30.21,SSW,213,0.0,0.0,87,0.00,,---,0.00,0.00,VWS V14.01,2013-02-03 01:06:00,
2013-02-02 20:12:00,27.6,24.2,30.20,SSW,213,0.0,0.0,87,0.00,,---,0.00,0.00,VWS V14.01,2013-02-03 01:12:00,
2013-02-02 20:17:00,27.5,24.1,30.21,SSW,213,0.0,0.0,87,0.00,,---,0.00,0.00,VWS V14.01,2013-02-03 01:17:00,
2013-02-02 20:22:00,27.5,24.4,30.21,SSW,213,0.0,1.0,88,0.00,,---,0.00,0.00,VWS V14.01,2013-02-03 01:22:00,
2013-02-02 20:27:00,27.5,24.4,30.21,SSW,213,0.0,1.0,88,0.00,,---,0.00,0.00,VWS V14.01,2013-02-03 01:27:00,
2013-02-02 20:30:00,27.4,24.3,30.21,SSW,213,0.0,2.0,88,0.00,,---,0.00,0.00,VWS V14.01,2013-02-03 01:30:00,
2013-02-02 20:32:00,27.5,24.4,30.21,SSW,213,1.0,1.0,88,0.00,,---,0.00,0.00,VWS V14.01,2013-02-03 01:32:00,
2013-02-02 20:37:00,27.4,24.3,30.21,SSW,213,0.0,1.0,88,0.00,,---,0.00,0.00,VWS V14.01,2013-02-03 01:37:00,
2013-02-02 20:42:00,27.4,24.3,30.21,SSW,213,0.0,1.0,88,0.00,,---,0.00,0.00,VWS V14.01,2013-02-03 01:42:00,
2013-02-02 20:48:00,27.4,24.3,30.21,SSW,213,0.0,1.0,88,0.00,,---,0.00,0.00,VWS V14.01,2013-02-03 01:48:00,
2013-02-02 20:53:00,27.4,24.6,30.21,SSW,213,0.0,1.0,89,0.00,,---,0.00,0.00,VWS V14.01,2013-02-03 01:53:00,
2013-02-02 20:58:00,27.4,24.3,30.21,SSW,213,0.0,1.0,88,0.00,,---,0.00,0.00,VWS V14.01,2013-02-03 01:58:00,
2013-02-02 21:00:00,27.4,24.6,30.21,SSW,213,0.0,1.0,89,0.00,,---,0.00,0.00,VWS V14.01,2013-02-03 02:00:00,
2013-02-02 21:03:00,27.4,24.6,30.21,SSW,213,0.0,0.0,89,0.00,,---,0.00,0.00,VWS V14.01,2013-02-03 02:03:00,
2013-02-02 21:08:00,27.4,24.6,30.20,SSW,213,0.0,0.0,89,0.00,,---,0.00,0.00,VWS V14.01,2013-02-03 02:08:00,
2013-02-02 21:13:00,27.4,24.6,30.20,SSW,213,0.0,0.0,89,0.00,,---,0.00,0.00,VWS V14.01,2013-02-03 02:13:00,
2013-02-02 21:18:00,27.4,24.6,30.20,SSW,213,0.0,0.0,89,0.00,,---,0.00,0.00,VWS V14.01,2013-02-03 02:18:00,
2013-02-02 21:23:00,27.5,24.7,30.21,SSW,213,0.0,0.0,89,0.00,,---,0.00,0.00,VWS V14.01,2013-02-03 02:23:00,
2013-02-02 21:28:00,27.5,24.7,30.21,SSW,213,0.0,0.0,89,0.00,,---,0.00,0.00,VWS V14.01,2013-02-03 02:28:00,
2013-02-02 21:30:00,27.5,24.7,30.21,SSW,213,0.0,0.0,89,0.00,,---,0.00,0.00,VWS V14.01,2013-02-03 02:30:00,
2013-02-02 21:33:00,27.5,24.7,30.21,SSW,213,0.0,0.0,89,0.00,,---,0.00,0.00,VWS V14.01,2013-02-03 02:33:00,
2013-02-02 21:38:00,27.5,25.0,30.21,SSW,213,0.0,0.0,90,0.00,,---,0.00,0.00,VWS V14.01,2013-02-03 02:38:00,
2013-02-02 21:44:00,27.6,25.1,30.21,SSW,213,0.0,0.0,90,0.00,,---,0.00,0.00,VWS V14.01,2013-02-03 02:44:00,
2013-02-02 21:49:00,27.6,25.1,30.21,SSW,213,0.0,0.0,90,0.00,,---,0.00,0.00,VWS V14.01,2013-02-03 02:49:00,
2013-02-02 21:54:00,27.6,25.1,30.21,SSW,213,0.0,0.0,90,0.00,,---,0.00,0.00,VWS V14.01,2013-02-03 02:54:00,
2013-02-02 21:59:00,27.6,25.1,30.21,SSW,213,0.0,0.0,90,0.00,,---,0.00,0.00,VWS V14.01,2013-02-03 02:59:00,
2013-02-02 22:00:00,27.6,25.1,30.21,SSW,213,0.0,0.0,90,0.00,,---,0.00,0.00,VWS V14.01,2013-02-03 03:00:00,
2013-02-02 22:04:00,27.6,25.1,30.21,SSW,213,0.0,0.0,90,0.00,,---,0.00,0.00,VWS V14.01,2013-02-03 03:04:00,
2013-02-02 22:09:00,27.6,25.1,30.20,SSW,213,0.0,0.0,90,0.00,,---,0.00,0.00,VWS V14.01,2013-02-03 03:09:00,
2013-02-02 22:14:00,27.7,25.2,30.20,SSW,213,0.0,0.0,90,0.00,,---,0.00,0.00,VWS V14.01,2013-02-03 03:14:00,
2013-02-02 22:19:00,27.7,25.2,30.20,SSW,213,0.0,0.0,90,0.00,,---,0.00,0.00,VWS V14.01,2013-02-03 03:19:00,
2013-02-02 22:24:00,27.7,25.4,30.19,SSW,213,0.0,0.0,91,0.00,,---,0.00,0.00,VWS V14.01,2013-02-03 03:24:00,
2013-02-02 22:30:00,27.7,25.2,30.18,SSW,213,0.0,0.0,90,0.00,,---,0.00,0.00,VWS V14.01,2013-02-03 03:30:00,
2013-02-02 22:35:00,27.7,25.2,30.18,SSW,213,0.0,0.0,90,0.00,,---,0.00,0.00,VWS V14.01,2013-02-03 03:35:00,
2013-02-02 22:40:00,27.7,25.4,30.18,SSW,213,0.0,0.0,91,0.00,,---,0.00,0.00,VWS V14.01,2013-02-03 03:40:00,
2013-02-02 22:45:00,27.7,25.4,30.18,SSW,213,0.0,0.0,91,0.00,,---,0.00,0.00,VWS V14.01,2013-02-03 03:45:00,
2013-02-02 22:50:00,27.7,25.4,30.17,SSW,213,0.0,0.0,91,0.00,,---,0.00,0.00,VWS V14.01,2013-02-03 03:50:00,
2013-02-02 22:55:00,27.7,25.4,30.17,SSW,213,0.0,0.0,91,0.00,,---,0.00,0.00,VWS V14.01,2013-02-03 03:55:00,
2013-02-02 23:00:00,27.7,25.4,30.17,SSW,213,0.0,0.0,91,0.00,,---,0.00,0.00,VWS V14.01,2013-02-03 04:00:00,
2013-02-02 23:05:00,27.6,25.3,30.17,SSW,213,0.0,0.0,91,0.00,,---,0.00,0.00,VWS V14.01,2013-02-03 04:05:00,
2013-02-02 23:10:00,27.6,25.3,30.17,SSW,213,0.0,0.0,91,0.00,,---,0.00,0.00,VWS V14.01,2013-02-03 04:10:00,
2013-02-02 23:16:00,27.6,25.3,30.18,SSW,213,0.0,0.0,91,0.00,,---,0.00,0.00,VWS V14.01,2013-02-03 04:16:00,
2013-02-02 23:21:00,27.5,25.2,30.18,SSW,213,0.0,0.0,91,0.00,,---,0.00,0.00,VWS V14.01,2013-02-03 04:21:00,
2013-02-02 23:26:00,27.5,25.2,30.17,SSW,213,0.0,0.0,91,0.00,,---,0.00,0.00,VWS V14.01,2013-02-03 04:26:00,
2013-02-02 23:30:00,27.4,25.1,30.18,SSW,213,0.0,0.0,91,0.00,,---,0.00,0.00,VWS V14.01,2013-02-03 04:30:00,
2013-02-02 23:31:00,27.4,25.1,30.18,SSW,213,0.0,0.0,91,0.00,,---,0.00,0.00,VWS V14.01,2013-02-03 04:31:00,
2013-02-02 23:36:00,27.4,25.1,30.17,SSW,213,0.0,0.0,91,0.00,,---,0.00,0.00,VWS V14.01,2013-02-03 04:36:00,
2013-02-02 23:41:00,27.4,25.1,30.17,SSW,213,0.0,0.0,91,0.00,,---,0.00,0.00,VWS V14.01,2013-02-03 04:41:00,
2013-02-02 23:46:00,27.4,25.1,30.17,SSW,213,0.0,0.0,91,0.00,,---,0.00,0.00,VWS V14.01,2013-02-03 04:46:00,
2013-02-02 23:51:00,27.4,25.1,30.17,SSW,213,0.0,0.0,91,0.00,,---,0.00,0.00,VWS V14.01,2013-02-03 04:51:00,
2013-02-02 23:56:00,27.4,25.1,30.17,SSW,213,0.0,0.0,91,0.00,,---,0.00,0.00,VWS V14.01,2013-02-03 04:56:00,